Home   Weather   Lappeenranta   Past weeks

Flag for Finland Past Weather in Lappeenranta, Finland — Yesterday and Last 2 Weeks

Now
10 °F

Passing clouds.


Feels Like: 0 °F
Forecast: 13 / 33 °F
Wind: 7 mph from Northwest

Location: Lappeenranta

Current Time: Dec 6, 2016 at 4:11:08 pm

Latest Report: Dec 6, 2016 at 3:20 pm


Visibility: N/A

Pressure: 30.18 "Hg

Humidity: 85%

Dew Point: 7 °F

Location of LappeenrantaLocation

Past Weather in Lappeenranta — Graph

°F

Lappeenranta Temperature Yesterday

Maximum temperature yesterday: 39 °F (at 8:50 am)
Minimum temperature yesterday: 18 °F (at 8:20 pm)
Average temperature yesterday: 29 °F

High & Low Weather Summary for the Past Weeks

 TemperatureHumidityPressure
High41 °F (Nov 21, 2:20 pm)100% (Nov 21, 2:20 pm)30.18 "Hg (Nov 21, 2:20 pm)
Low10 °F (Nov 29, 4:20 pm)68% (Dec 5, 3:50 pm)28.91 "Hg (Nov 26, 8:50 pm)
Average27 °F94%29.68 "Hg
* Reported Nov 21 2:20 pm — Dec 6 2:50 pm, Lappeenranta, Weather by CustomWeather, © 2016

Note: Actual official high and low records may vary slightly from our data, if they occured in-between our weather recording intervals... More about our weather records

Advertising

Lappeenranta Weather History for the Previous 24 Hours

Scroll right to see more
 ConditionsComfort  
Time TempWeatherWind HumidityBarometerVisibility
2:50 pm
Tue, Dec 6
10 °FSunny.6 mph85%30.15 "Hg10 mi
2:20 pm12 °FPassing clouds.7 mph85%30.15 "HgN/A
1:50 pm12 °FPassing clouds.8 mph79%30.15 "HgN/A
1:20 pm12 °FPassing clouds.7 mph79%30.15 "HgN/A
12:50 pm12 °FSunny.7 mph79%30.12 "Hg10 mi
12:20 pm12 °FSunny.8 mph85%30.12 "Hg10 mi
11:50 am12 °FPassing clouds.8 mph85%30.12 "HgN/A
11:20 am12 °FPassing clouds.9 mph85%30.09 "HgN/A
10:50 am12 °FSunny.8 mph85%30.09 "Hg10 mi
10:20 am12 °FSnow flurries. Sunny.8 mph92%30.07 "HgN/A
9:50 am12 °FPassing clouds.8 mph92%30.07 "HgN/A
9:20 am12 °FSunny.6 mph100%30.04 "Hg10 mi
8:50 am14 °FPassing clouds.7 mph92%30.04 "HgN/A
8:20 am14 °FPassing clouds.7 mph92%30.01 "HgN/A
7:50 am16 °FClear.7 mph93%30.01 "Hg10 mi
7:20 am16 °FPassing clouds.6 mph93%29.98 "HgN/A
6:50 am18 °FPassing clouds.8 mph86%29.98 "HgN/A
6:20 am18 °FPassing clouds.7 mph86%29.95 "HgN/A
5:50 am18 °FPassing clouds.7 mph86%29.95 "HgN/A
5:20 am19 °FPassing clouds.8 mph79%29.92 "HgN/A
4:50 am19 °FPassing clouds.9 mph86%29.92 "HgN/A
4:20 am19 °FPassing clouds.8 mph79%29.89 "HgN/A
3:50 am19 °FPassing clouds.8 mph86%29.86 "HgN/A
3:20 am19 °FPassing clouds.8 mph86%29.86 "HgN/A
2:50 am19 °FSnow flurries. Passing clouds.7 mph86%29.83 "HgN/A
2:20 am21 °FLight snow. Passing clouds.9 mph80%29.80 "HgN/A
1:50 am21 °FLight snow. Passing clouds.9 mph80%29.77 "HgN/A
1:20 am21 °FLight snow. Passing clouds.12 mph80%29.77 "HgN/A
12:50 am21 °FSnow flurries. Passing clouds.10 mph80%29.74 "HgN/A
12:20 am21 °FSnow flurries. Passing clouds.10 mph80%29.74 "HgN/A
11:50 pm
Mon, Dec 5
21 °FLight snow. Passing clouds.10 mph80%29.71 "HgN/A
11:20 pm19 °FLight snow. Overcast.12 mph86%29.68 "Hg6 mi
10:50 pm19 °FLight snow. Mostly cloudy.10 mph86%29.65 "Hg6 mi
10:20 pm19 °FLight snow. Overcast.12 mph86%29.65 "Hg4 mi
9:50 pm19 °FLight snow. Overcast.10 mph86%29.62 "Hg6 mi
9:20 pm19 °FLight snow. Overcast.12 mph79%29.62 "Hg3 mi
8:50 pm18 °FLight snow. Overcast.10 mph86%29.59 "Hg2 mi
8:20 pm18 °FLight snow. Mostly cloudy.13 mph86%29.56 "Hg1 mi
7:50 pm19 °FLight snow. Mostly cloudy.12 mph79%29.56 "Hg4 mi
7:20 pm19 °FLight snow. Passing clouds.13 mph79%29.53 "HgN/A
6:50 pm19 °FLight snow. Passing clouds.14 mph79%29.50 "HgN/A
6:20 pm19 °FSnow flurries. Passing clouds.15 mph79%29.47 "HgN/A
5:50 pm19 °FSnow flurries. Passing clouds.15 mph79%29.47 "HgN/A
5:20 pm21 °FMostly cloudy.16 mph74%29.45 "HgN/A
4:50 pm21 °FSnow flurries. Mostly cloudy.14 mph74%29.42 "HgN/A
4:20 pm23 °FPassing clouds.16 mph68%29.39 "HgN/A
Weather by CustomWeather, © 2016

See weather overviewHow to use our weather pages